[[{"header":{"parameterUnit":"m.s-1","parameterCategory":2,"la1":30.2991,"la2":30.254,"lo1":-89.0895,"lo2":-89.0444,"dy":0.0017,"dx":0.0017,"nx":28,"ny":28,"refTime":"2024-02-16T09:00:00:Z","depth":"0","parameterNumber":2,"parameterNumberName":"U-component_of_CURRENTS"},"data":[0,0,0,0,0,0,0,0,0,0,0,0,0,0,0,0,0,0,0,0,0,0,0,0,0,0,0,0,0,0,0,0,0,0,0,0,0,0,0,0,0,0,0,0,0,0,0,0,0,0,0,0,0,0,0,0,0,0,-0.248,-0.248,0,-0.2488,-0.2488,-0.2488,-0.2464,-0.2463,-0.2463,-0.2462,-0.2464,-0.2465,-0.2465,0,0,0,0,0,0,0,0,0,0,0,0,0,-0.2447,-0.2448,-0.248,-0.248,-0.248,-0.2488,-0.2488,-0.2488,-0.2464,-0.2463,-0.2462,-0.2462,-0.2464,-0.2464,-0.2465,0,0,0,0,0,0,0,0,0,0,0,0,0,-0.2457,-0.2448,-0.248,-0.247,-0.247,-0.2488,-0.2488,-0.2488,-0.2464,-0.2463,-0.2462,-0.2461,-0.2464,-0.2464,-0.2465,-0.2488,0,0,-0.2468,-0.2468,0,0,0,0,0,0,0,0,-0.2457,-0.2458,-0.2471,-0.2471,-0.247,-0.2475,-0.2477,-0.2488,-0.2464,-0.2464,-0.2462,-0.2461,-0.2469,-0.2469,-0.2471,-0.2488,-0.2488,-0.2468,-0.2469,-0.2469,-0.2469,0,0,0,0,0,0,0,-0.2456,-0.2458,-0.2481,-0.2472,-0.2471,-0.2467,-0.2467,-0.2479,-0.247,-0.2464,-0.2463,-0.2467,-0.2468,-0.247,-0.247,-0.2488,-0.2468,-0.2469,-0.2469,-0.247,-0.2521,-0.2522,0,0,0,0,0,0,-0.2459,-0.2457,-0.2481,-0.2481,-0.2463,-0.2469,-0.2469,-0.2473,-0.247,-0.2469,-0.2468,-0.2466,-0.2469,-0.2469,-0.247,-0.2487,-0.2469,-0.247,-0.247,-0.2521,-0.2522,-0.2522,0,0,0,0,0,0,-0.2459,-0.2461,-0.2481,-0.2471,-0.2473,-0.247,-0.2475,-0.2474,-0.2472,-0.2473,-0.2471,-0.2467,-0.2468,-0.2469,-0.248,-0.2487,-0.247,-0.2471,-0.252,-0.2521,-0.2522,-0.2526,0,0,0,0,0,0,-0.2458,-0.2461,-0.2462,-0.2471,-0.2474,-0.2494,-0.2476,-0.2475,-0.2477,-0.2474,-0.2472,-0.2471,-0.2467,-0.2478,-0.2481,-0.2488,-0.2472,-0.2518,-0.252,-0.2522,-0.2525,-0.2527,-0.2529,0,0,0,0,0,-0.2456,-0.2463,-0.2462,-0.2465,-0.2477,-0.2495,-0.2496,-0.2489,-0.2478,-0.2483,-0.2478,-0.2471,-0.249,-0.248,-0.2482,-0.249,-0.2518,-0.252,-0.2521,-0.2524,-0.2527,-0.2529,0,0,0,0,0,0,-0.2448,-0.2462,-0.2461,-0.2471,-0.2483,-0.2491,-0.2493,-0.2492,-0.2493,-0.2487,-0.2482,-0.2482,-0.2495,-0.2497,-0.2486,-0.2511,-0.2503,-0.2506,-0.2504,-0.2507,-0.2509,-0.2514,-0.2473,0,0,0,0,0,-0.2449,-0.2456,-0.2472,-0.2479,-0.2485,-0.249,-0.2494,-0.2494,-0.2498,-0.2497,-0.2496,-0.2498,-0.2507,-0.2509,-0.2518,-0.2532,-0.2527,-0.254,-0.2543,-0.2544,-0.2551,-0.2543,-0.2544,-0.2529,-0.2529,-0.2529,0,0,-0.2447,-0.2456,-0.2459,-0.2477,-0.2482,-0.25,-0.2489,-0.25,-0.2512,-0.2499,-0.2508,-0.2508,-0.2514,-0.2527,-0.2533,-0.2527,-0.2547,-0.2547,-0.2548,-0.2554,-0.2545,-0.2546,-0.2547,-0.253,-0.253,-0.2529,0,0,-0.2453,-0.2456,-0.2466,-0.248,-0.2496,-0.2504,-0.2509,-0.252,-0.252,-0.2535,-0.2528,-0.2531,-0.2544,-0.2547,-0.2551,-0.2575,-0.2561,-0.2578,-0.2589,-0.2582,-0.2582,-0.2583,-0.2578,-0.2578,-0.2577,-0.2577,-0.2577,0,-0.245,-0.2463,-0.2472,-0.249,-0.25,-0.2507,-0.2524,-0.2534,-0.2547,-0.2549,-0.2539,-0.2553,-0.2555,-0.257,-0.2576,-0.2579,-0.2572,-0.2574,-0.2583,-0.2583,-0.2584,-0.2579,-0.2579,-0.2577,-0.2577,-0.2577,-0.2577,0,-0.2465,-0.2478,-0.2486,-0.2509,-0.2525,-0.2539,-0.2559,-0.2569,-0.2567,-0.2573,-0.2583,-0.2583,-0.2588,-0.2591,-0.2591,-0.2601,-0.2594,-0.2585,-0.2571,-0.2585,-0.2579,-0.2579,-0.2578,-0.2578,-0.2577,-0.2577,0,0,-0.2449,-0.2488,-0.2489,-0.25,-0.2533,-0.2545,-0.2572,-0.2593,-0.2603,-0.2608,-0.2616,-0.2626,-0.2617,-0.2622,-0.2618,-0.2614,-0.2611,-0.2602,-0.2602,-0.2589,-0.2593,-0.2619,-0.2621,-0.2597,-0.2597,-0.2597,-0.2586,0,-0.2454,-0.2484,-0.2506,-0.2532,-0.2545,-0.2568,-0.2593,-0.2613,-0.2624,-0.2636,-0.2633,-0.2641,-0.2632,-0.2628,-0.2625,-0.2619,-0.2612,-0.2615,-0.2589,-0.2588,-0.2602,-0.2623,-0.2544,-0.2531,-0.2586,-0.2586,-0.2586,0,-0.245,-0.2474,-0.2499,-0.2536,-0.2544,-0.2563,-0.2592,-0.2616,-0.2644,-0.2651,-0.2656,-0.2657,-0.2662,-0.2646,-0.2635,-0.2635,-0.2617,-0.2607,-0.2606,-0.263,-0.2615,-0.2527,-0.2529,-0.2485,-0.2586,-0.2586,-0.2586,0,-0.2415,-0.246,-0.2475,-0.2489,-0.2541,-0.2552,-0.2574,-0.261,-0.2628,-0.2655,-0.2669,-0.2671,-0.2674,-0.2653,-0.2647,-0.2633,-0.2636,-0.2608,-0.2614,-0.2615,-0.2546,-0.2541,-0.2496,-0.2594,-0.2594,-0.2594,-0.2594,0,-0.2402,-0.2412,-0.2457,-0.2468,-0.2484,-0.2527,-0.2546,-0.2574,-0.2615,-0.264,-0.2665,-0.2686,-0.2675,-0.2682,-0.2657,-0.2651,-0.264,-0.2626,-0.2618,-0.2547,-0.2543,-0.2501,-0.2487,-0.2594,-0.2594,-0.2594,-0.2594,0,-0.2353,-0.2391,-0.2403,-0.2451,-0.2466,-0.2469,-0.252,-0.2537,-0.2589,-0.2624,-0.2633,-0.269,-0.2711,-0.271,-0.2691,-0.2671,-0.2607,-0.2652,-0.2581,-0.2566,-0.2529,-0.2518,-0.2464,-0.239,-0.2644,-0.2645,-0.2645,0,-0.2327,-0.2327,-0.2368,-0.2375,-0.2394,-0.2416,-0.2436,-0.2502,-0.2533,-0.2627,-0.2643,-0.2695,-0.2729,-0.2739,-0.2732,-0.2711,-0.2625,-0.2602,-0.2566,-0.2531,-0.2511,-0.2479,-0.2416,-0.2465,-0.2464,-0.2463,-0.2463,0,-0.2258,-0.2268,-0.2283,-0.23,-0.2318,-0.2339,-0.2381,-0.2406,-0.2496,-0.2547,-0.2619,-0.2659,-0.2734,-0.2714,-0.2722,-0.2677,-0.2525,-0.2588,-0.2549,-0.238,-0.234,-0.2263,-0.2477,-0.2456,-0.2456,-0.2457,-0.2457,-0.2457,-0.2184,-0.2175,-0.2191,-0.2194,-0.2222,-0.2236,-0.2215,-0.2303,-0.2346,-0.2424,-0.2537,-0.2619,-0.2645,-0.2672,-0.2636,-0.2539,-0.253,-0.242,-0.2412,-0.2386,-0.2309,-0.2533,-0.2513,-0.2514,-0.2515,-0.2516,-0.2516,0,-0.2075,-0.2078,-0.2083,-0.2081,-0.2059,-0.2112,-0.2151,-0.2132,-0.2159,-0.2332,-0.2403,-0.2558,-0.2525,-0.2543,-0.2498,-0.2382,-0.2278,-0.2269,-0.2168,-0.2112,-0.2298,-0.2286,-0.2218,-0.2218,-0.2218,-0.2218,-0.2218,-0.2219,-0.2017,-0.1977,-0.198,-0.1899,-0.1901,-0.183,-0.182,-0.1849,-0.1943,-0.21,-0.2286,-0.2484,-0.2488,-0.2531,-0.2376,-0.2244,-0.2102,-0.2041,-0.2023,-0.2131,-0.2143,-0.2154,-0.2138,-0.2041,-0.2041,-0.176,-0.1757,-0.1756]},{"header":{"parameterUnit":"m.s-1","parameterCategory":2,"la1":30.2991,"la2":30.254,"lo1":-89.0895,"lo2":-89.0444,"dy":0.0017,"dx":0.0017,"nx":28,"ny":28,"refTime":"2024-02-16T09:00:00:Z","depth":"0","parameterNumber":3,"parameterNumberName":"V-component_of_CURRENTS"},"data":[0,0,0,0,0,0,0,0,0,0,0,0,0,0,0,0,0,0,0,0,0,0,0,0,0,0,0,0,0,0,0,0,0,0,0,0,0,0,0,0,0,0,0,0,0,0,0,0,0,0,0,0,0,0,0,0,0,0,-0.0445,-0.0444,0,-0.0372,-0.0371,-0.037,-0.0325,-0.0324,-0.0324,-0.0324,-0.0228,-0.0226,-0.0224,0,0,0,0,0,0,0,0,0,0,0,0,0,-0.0512,-0.0511,-0.0445,-0.0444,-0.0443,-0.0372,-0.0371,-0.037,-0.0325,-0.0324,-0.0324,-0.0324,-0.0229,-0.0226,-0.0224,0,0,0,0,0,0,0,0,0,0,0,0,0,-0.0466,-0.0511,-0.0445,-0.0412,-0.0408,-0.0372,-0.0371,-0.037,-0.0325,-0.0324,-0.0324,-0.0324,-0.023,-0.0227,-0.0223,-0.0209,0,0,-0.0213,-0.0211,0,0,0,0,0,0,0,0,-0.0468,-0.0463,-0.0418,-0.0414,-0.041,-0.0357,-0.036,-0.0315,-0.0325,-0.0356,-0.0324,-0.0324,-0.027,-0.0263,-0.025,-0.0205,-0.0201,-0.0212,-0.021,-0.0209,-0.0208,0,0,0,0,0,0,0,-0.0472,-0.0466,-0.0416,-0.0417,-0.0412,-0.039,-0.0383,-0.0351,-0.0315,-0.0353,-0.035,-0.0342,-0.0267,-0.0254,-0.0248,-0.0199,-0.0212,-0.0209,-0.0207,-0.0206,-0.0144,-0.0144,0,0,0,0,0,0,-0.0483,-0.0469,-0.0418,-0.0414,-0.0439,-0.0389,-0.0381,-0.0374,-0.0316,-0.0307,-0.0343,-0.0341,-0.026,-0.0252,-0.0244,-0.0228,-0.0209,-0.0206,-0.0204,-0.0144,-0.0144,-0.0145,0,0,0,0,0,0,-0.0485,-0.0479,-0.0421,-0.044,-0.0431,-0.0388,-0.0381,-0.0373,-0.0359,-0.0308,-0.0299,-0.0337,-0.0259,-0.0249,-0.0221,-0.0224,-0.0204,-0.0201,-0.0143,-0.0144,-0.0144,-0.0193,0,0,0,0,0,0,-0.0487,-0.048,-0.0481,-0.0441,-0.043,-0.0405,-0.0381,-0.0372,-0.0355,-0.0351,-0.03,-0.0291,-0.0258,-0.0227,-0.0218,-0.0218,-0.0198,-0.0142,-0.0143,-0.0144,-0.019,-0.0195,-0.0199,0,0,0,0,0,-0.049,-0.0493,-0.0482,-0.0476,-0.0432,-0.0405,-0.0398,-0.0366,-0.0355,-0.0352,-0.032,-0.0292,-0.0226,-0.0224,-0.0214,-0.0213,-0.0142,-0.0143,-0.0144,-0.0189,-0.0194,-0.0199,0,0,0,0,0,0,-0.0521,-0.0487,-0.0474,-0.0467,-0.0441,-0.0398,-0.0392,-0.0371,-0.0343,-0.0341,-0.0294,-0.0283,-0.0261,-0.0233,-0.0233,-0.02,-0.0181,-0.018,-0.0218,-0.0223,-0.0227,-0.0233,-0.0195,0,0,0,0,0,-0.053,-0.0524,-0.0487,-0.0482,-0.0472,-0.0434,-0.042,-0.0399,-0.0368,-0.0355,-0.0319,-0.0285,-0.0257,-0.0238,-0.0208,-0.0188,-0.0163,-0.0182,-0.0186,-0.019,-0.0188,-0.0156,-0.0157,-0.0148,-0.0148,-0.0148,0,0,-0.054,-0.0521,-0.0518,-0.0489,-0.0467,-0.0458,-0.0425,-0.0408,-0.0399,-0.0349,-0.0329,-0.0298,-0.0256,-0.0234,-0.0221,-0.021,-0.0182,-0.0191,-0.0194,-0.0191,-0.0158,-0.0158,-0.0159,-0.0148,-0.0148,-0.0148,0,0,-0.0562,-0.0543,-0.0548,-0.053,-0.0502,-0.0478,-0.0477,-0.0437,-0.0419,-0.0396,-0.0361,-0.0332,-0.0288,-0.0256,-0.0235,-0.0244,-0.0207,-0.0238,-0.0257,-0.0227,-0.0227,-0.0227,-0.0208,-0.0206,-0.0237,-0.0237,-0.0237,0,-0.0579,-0.0578,-0.0545,-0.0545,-0.0536,-0.0492,-0.0496,-0.0469,-0.0426,-0.0413,-0.0398,-0.0333,-0.0297,-0.0266,-0.0268,-0.0252,-0.0233,-0.0242,-0.0232,-0.0231,-0.023,-0.0211,-0.0208,-0.024,-0.0239,-0.0239,-0.0239,0,-0.0603,-0.0603,-0.0604,-0.059,-0.0575,-0.0572,-0.0533,-0.0516,-0.049,-0.0459,-0.0425,-0.0375,-0.0335,-0.0321,-0.0294,-0.0271,-0.0261,-0.0243,-0.022,-0.0234,-0.0213,-0.0209,-0.0243,-0.0242,-0.0242,-0.0241,0,0,-0.0643,-0.0627,-0.0629,-0.0636,-0.0602,-0.0596,-0.0578,-0.055,-0.0543,-0.0494,-0.0478,-0.0422,-0.039,-0.0364,-0.0325,-0.0294,-0.0274,-0.0269,-0.0266,-0.0252,-0.0215,-0.017,-0.0161,-0.0254,-0.0254,-0.0253,-0.0207,0,-0.0676,-0.0697,-0.0671,-0.0688,-0.0698,-0.0654,-0.0642,-0.0609,-0.0573,-0.0545,-0.0482,-0.0452,-0.0407,-0.0391,-0.0352,-0.029,-0.0264,-0.0288,-0.0202,-0.02,-0.0158,-0.0155,-0.0159,-0.0114,-0.0203,-0.0202,-0.0202,0,-0.0713,-0.0723,-0.0749,-0.0747,-0.0746,-0.0743,-0.0723,-0.0706,-0.0647,-0.0618,-0.0567,-0.0514,-0.0451,-0.042,-0.0317,-0.0335,-0.0283,-0.0236,-0.0233,-0.0168,-0.0146,-0.0111,-0.0103,-0.0019,-0.0195,-0.0196,-0.0196,0,-0.0772,-0.078,-0.0807,-0.0806,-0.079,-0.079,-0.0778,-0.0731,-0.0722,-0.0664,-0.065,-0.0561,-0.0521,-0.0436,-0.0322,-0.0324,-0.0213,-0.0204,-0.0116,-0.0113,-0.0087,-0.0082,0.0015,-0.0144,-0.0144,-0.0144,-0.0144,0,-0.0825,-0.0846,-0.0839,-0.0854,-0.0886,-0.0849,-0.0864,-0.0836,-0.0795,-0.0789,-0.0694,-0.067,-0.0524,-0.0435,-0.0339,-0.0205,-0.0223,-0.0115,-0.0092,-0.0105,-0.0102,-0.0002,0.006,-0.0142,-0.0143,-0.0143,-0.0144,0,-0.0885,-0.0879,-0.0914,-0.0912,-0.0916,-0.0939,-0.0931,-0.0939,-0.0888,-0.0877,-0.0862,-0.0748,-0.0624,-0.0474,-0.0328,-0.0227,-0.0039,-0.0063,-0.0087,-0.0067,0.01,0.0159,0.0343,0.037,0.004,0.0041,0.0042,0,-0.0918,-0.094,-0.0967,-0.0998,-0.1,-0.1023,-0.1039,-0.0997,-0.1001,-0.0928,-0.0931,-0.0802,-0.0713,-0.0464,-0.0261,-0.0071,0.0012,0.0036,0.0042,0.0119,0.0201,0.0266,0.0278,0.0046,0.0047,0.0048,0.0049,0,-0.0977,-0.0983,-0.1015,-0.1078,-0.1111,-0.1146,-0.116,-0.1172,-0.1118,-0.1093,-0.1039,-0.0958,-0.0695,-0.0471,-0.0191,-0.007,0.012,0.0063,0.015,0.023,0.03,0.0332,-0.0003,0.0058,0.0057,0.0056,0.0056,0.0055,-0.1018,-0.1062,-0.1103,-0.1164,-0.1209,-0.1256,-0.1282,-0.1284,-0.1283,-0.1228,-0.1134,-0.0988,-0.0638,-0.0239,-0.0104,0.02,0.0207,0.0271,0.0338,0.0397,0.0432,0.012,0.0208,0.0208,0.0208,0.0208,0.0208,0,-0.1073,-0.112,-0.1185,-0.1258,-0.1321,-0.1317,-0.1354,-0.1371,-0.1375,-0.1283,-0.1204,-0.0809,-0.0473,-0.0131,0.0315,0.0461,0.0484,0.053,0.0597,0.0593,0.0312,0.0319,0.0427,0.0427,0.0427,0.0427,0.0427,0.0427,-0.1103,-0.1181,-0.1218,-0.1335,-0.1383,-0.1445,-0.1463,-0.1476,-0.1423,-0.1268,-0.104,-0.0857,-0.0316,0.0409,0.0769,0.0773,0.0857,0.0871,0.0922,0.0704,0.0683,0.0663,0.0682,0.0865,0.0866,0.1148,0.1151,0.1153]}],[{"header":{"parameterUnit":"m.s-1","parameterCategory":2,"la1":30.2991,"la2":30.254,"lo1":-89.0895,"lo2":-89.0444,"dy":0.0017,"dx":0.0017,"nx":28,"ny":28,"refTime":"2024-02-16T09:00:00:Z","depth":"2","parameterNumber":2,"parameterNumberName":"U-component_of_CURRENTS"},"data":[0,0,0,0,0,0,0,0,0,0,0,0,0,0,0,0,0,0,0,0,0,0,0,0,0,0,0,0,0,0,0,0,0,0,0,0,0,0,0,0,0,0,0,0,0,0,0,0,0,0,0,0,0,0,0,0,0,0,-0.2445,-0.2445,0,-0.2454,-0.2454,-0.2454,-0.2432,-0.2432,-0.2431,-0.2431,-0.2434,-0.2435,-0.2435,0,0,0,0,0,0,0,0,0,0,0,0,0,-0.2412,-0.2412,-0.2445,-0.2445,-0.2445,-0.2454,-0.2454,-0.2454,-0.2432,-0.2432,-0.2431,-0.2431,-0.2434,-0.2435,-0.2435,0,0,0,0,0,0,0,0,0,0,0,0,0,-0.2422,-0.2412,-0.2445,-0.2437,-0.2436,-0.2454,-0.2454,-0.2454,-0.2433,-0.2432,-0.2431,-0.243,-0.2434,-0.2435,-0.2435,-0.2457,0,0,-0.2438,-0.2439,0,0,0,0,0,0,0,0,-0.2422,-0.2423,-0.2438,-0.2437,-0.2437,-0.2443,-0.2444,-0.2455,-0.2433,-0.2432,-0.2431,-0.243,-0.2438,-0.2439,-0.244,-0.2457,-0.2457,-0.2438,-0.2439,-0.2439,-0.2439,0,0,0,0,0,0,0,-0.2421,-0.2423,-0.2447,-0.2438,-0.2438,-0.2434,-0.2435,-0.2446,-0.2438,-0.2432,-0.2431,-0.2435,-0.2438,-0.2439,-0.244,-0.2457,-0.2438,-0.2439,-0.244,-0.244,-0.2491,-0.2492,0,0,0,0,0,0,-0.2424,-0.2422,-0.2446,-0.2447,-0.2429,-0.2436,-0.2436,-0.244,-0.2438,-0.2438,-0.2436,-0.2434,-0.2438,-0.2439,-0.244,-0.2457,-0.2439,-0.244,-0.244,-0.249,-0.2491,-0.2492,0,0,0,0,0,0,-0.2424,-0.2426,-0.2446,-0.2436,-0.2439,-0.2437,-0.2442,-0.2441,-0.244,-0.2441,-0.244,-0.2436,-0.2437,-0.2439,-0.245,-0.2457,-0.244,-0.2441,-0.2489,-0.2491,-0.2492,-0.2497,0,0,0,0,0,0,-0.2423,-0.2426,-0.2428,-0.2436,-0.2439,-0.246,-0.2443,-0.2442,-0.2445,-0.2442,-0.2441,-0.2441,-0.2437,-0.2449,-0.2451,-0.2458,-0.2442,-0.2488,-0.249,-0.2491,-0.2496,-0.2499,-0.2501,0,0,0,0,0,-0.2421,-0.2428,-0.2428,-0.243,-0.2442,-0.2461,-0.2462,-0.2456,-0.2446,-0.2451,-0.2448,-0.2441,-0.246,-0.245,-0.2452,-0.246,-0.2488,-0.249,-0.2491,-0.2495,-0.2498,-0.2501,0,0,0,0,0,0,-0.2413,-0.2427,-0.2426,-0.2436,-0.2449,-0.2457,-0.246,-0.246,-0.2461,-0.2456,-0.2451,-0.2451,-0.2465,-0.2467,-0.2456,-0.2482,-0.2473,-0.2476,-0.2475,-0.2478,-0.248,-0.2484,-0.2443,0,0,0,0,0,-0.2414,-0.2421,-0.2437,-0.2444,-0.2451,-0.2456,-0.2461,-0.2462,-0.2467,-0.2466,-0.2466,-0.2468,-0.2477,-0.2479,-0.2488,-0.2503,-0.2498,-0.2511,-0.2513,-0.2515,-0.2521,-0.2514,-0.2516,-0.2498,-0.2498,-0.2498,0,0,-0.2413,-0.2421,-0.2424,-0.2443,-0.2448,-0.2466,-0.2456,-0.2468,-0.248,-0.2468,-0.2478,-0.2478,-0.2484,-0.2497,-0.2504,-0.2497,-0.2518,-0.2517,-0.2519,-0.2524,-0.2516,-0.2517,-0.2519,-0.25,-0.25,-0.2499,0,0,-0.2418,-0.2422,-0.2432,-0.2446,-0.2462,-0.247,-0.2476,-0.2488,-0.2489,-0.2504,-0.2497,-0.2502,-0.2515,-0.2518,-0.2522,-0.2546,-0.2532,-0.255,-0.2561,-0.2554,-0.2555,-0.2556,-0.2551,-0.2551,-0.2548,-0.2548,-0.2548,0,-0.2416,-0.2429,-0.2438,-0.2456,-0.2466,-0.2474,-0.2491,-0.2502,-0.2515,-0.2518,-0.2509,-0.2523,-0.2526,-0.2541,-0.2548,-0.255,-0.2543,-0.2546,-0.2555,-0.2556,-0.2557,-0.2551,-0.2552,-0.2549,-0.2549,-0.2549,-0.2549,0,-0.2431,-0.2444,-0.2451,-0.2475,-0.2491,-0.2505,-0.2526,-0.2537,-0.2536,-0.2543,-0.2554,-0.2554,-0.256,-0.2563,-0.2563,-0.2574,-0.2566,-0.2558,-0.2543,-0.2558,-0.2552,-0.2552,-0.255,-0.2549,-0.2549,-0.2549,0,0,-0.2415,-0.2454,-0.2455,-0.2466,-0.25,-0.2511,-0.2539,-0.256,-0.2571,-0.2577,-0.2586,-0.2597,-0.2588,-0.2594,-0.2591,-0.2587,-0.2585,-0.2576,-0.2575,-0.2563,-0.2568,-0.2591,-0.2594,-0.2572,-0.2572,-0.2572,-0.2561,0,-0.242,-0.2449,-0.2472,-0.2497,-0.2511,-0.2534,-0.2559,-0.2581,-0.2592,-0.2605,-0.2603,-0.2612,-0.2603,-0.2601,-0.2598,-0.2593,-0.2586,-0.2589,-0.2563,-0.2563,-0.2575,-0.2595,-0.2316,-0.2287,-0.2561,-0.2561,-0.2561,0,-0.2417,-0.2439,-0.2465,-0.2501,-0.251,-0.253,-0.2559,-0.2584,-0.2613,-0.2621,-0.2627,-0.2628,-0.2634,-0.2618,-0.2609,-0.2609,-0.2592,-0.2582,-0.2581,-0.2603,-0.2587,-0.2317,-0.2276,-0.2561,-0.2561,-0.2561,-0.2561,0,-0.2382,-0.2426,-0.2441,-0.2455,-0.2507,-0.2519,-0.2541,-0.2578,-0.2597,-0.2625,-0.2639,-0.2643,-0.2647,-0.2627,-0.2622,-0.2608,-0.2611,-0.2584,-0.2588,-0.2589,-0.2349,-0.233,-0.2571,-0.2571,-0.2571,-0.2571,-0.2571,0,-0.2369,-0.2379,-0.2424,-0.2435,-0.2452,-0.2495,-0.2515,-0.2544,-0.2585,-0.261,-0.2637,-0.2658,-0.2648,-0.2655,-0.2631,-0.2625,-0.2616,-0.2599,-0.2592,-0.2346,-0.2328,-0.2565,-0.2564,-0.2571,-0.2571,-0.2571,-0.2571,0,-0.2321,-0.2358,-0.2371,-0.2419,-0.2434,-0.2439,-0.249,-0.2507,-0.256,-0.2595,-0.2604,-0.2662,-0.2682,-0.2682,-0.2665,-0.2645,-0.2629,-0.2625,-0.2354,-0.2317,-0.2602,-0.2602,-0.2613,-0.2614,-0.2615,-0.2615,-0.2616,0,-0.2295,-0.2296,-0.2337,-0.2345,-0.2364,-0.2387,-0.2408,-0.2474,-0.2504,-0.2598,-0.2614,-0.2666,-0.2693,-0.2703,-0.2636,-0.2599,-0.266,-0.2364,-0.23,-0.2618,-0.2608,-0.2607,-0.2606,-0.1965,-0.196,-0.1956,-0.1952,0,-0.2228,-0.2238,-0.2254,-0.2272,-0.2291,-0.2311,-0.2353,-0.2378,-0.2467,-0.2512,-0.2582,-0.2615,-0.2635,-0.2483,-0.2468,-0.2408,-0.235,-0.229,-0.2648,-0.2039,-0.2016,-0.2006,-0.2022,-0.1917,-0.192,-0.1923,-0.1925,-0.1926,-0.2156,-0.2148,-0.2164,-0.2168,-0.2196,-0.2209,-0.2189,-0.2255,-0.2289,-0.2307,-0.2443,-0.2402,-0.2373,-0.2223,-0.2127,-0.2039,-0.2217,-0.2078,-0.2084,-0.2095,-0.2065,-0.2049,-0.1948,-0.1951,-0.1955,-0.1957,-0.196,0,-0.2042,-0.2053,-0.2058,-0.2057,-0.2027,-0.2088,-0.2126,-0.2072,-0.2063,-0.2116,-0.2133,-0.1922,-0.1827,-0.1821,-0.1622,-0.1628,-0.1537,-0.1561,-0.1393,-0.143,-0.1463,-0.1395,-0.1103,-0.11,-0.1098,-0.1097,0,0,-0.1983,-0.1941,-0.1944,-0.1861,-0.1869,-0.1786,-0.1775,-0.1736,-0.1728,-0.166,-0.1621,-0.1719,-0.177,-0.1427,-0.1347,-0.1195,-0.1299,-0.1133,-0.1812,-0.165,-0.168,-0.1749,-0.1687,0,0,0,0,0]},{"header":{"parameterUnit":"m.s-1","parameterCategory":2,"la1":30.2991,"la2":30.254,"lo1":-89.0895,"lo2":-89.0444,"dy":0.0017,"dx":0.0017,"nx":28,"ny":28,"refTime":"2024-02-16T09:00:00:Z","depth":"2","parameterNumber":3,"parameterNumberName":"V-component_of_CURRENTS"},"data":[0,0,0,0,0,0,0,0,0,0,0,0,0,0,0,0,0,0,0,0,0,0,0,0,0,0,0,0,0,0,0,0,0,0,0,0,0,0,0,0,0,0,0,0,0,0,0,0,0,0,0,0,0,0,0,0,0,0,-0.0379,-0.0379,0,-0.0307,-0.0306,-0.0305,-0.0261,-0.026,-0.026,-0.026,-0.0165,-0.0163,-0.016,0,0,0,0,0,0,0,0,0,0,0,0,0,-0.0446,-0.0445,-0.0379,-0.0379,-0.0378,-0.0307,-0.0306,-0.0305,-0.0261,-0.026,-0.026,-0.026,-0.0166,-0.0163,-0.016,0,0,0,0,0,0,0,0,0,0,0,0,0,-0.0399,-0.0445,-0.038,-0.0347,-0.0343,-0.0307,-0.0306,-0.0305,-0.0261,-0.026,-0.026,-0.026,-0.0167,-0.0163,-0.016,-0.0145,0,0,-0.0149,-0.0148,0,0,0,0,0,0,0,0,-0.0402,-0.0397,-0.0353,-0.0349,-0.0345,-0.0293,-0.0295,-0.025,-0.0261,-0.0292,-0.026,-0.026,-0.0206,-0.0199,-0.0186,-0.014,-0.0136,-0.0149,-0.0147,-0.0145,-0.0144,0,0,0,0,0,0,0,-0.0405,-0.04,-0.035,-0.0352,-0.0347,-0.0325,-0.0318,-0.0286,-0.0251,-0.0289,-0.0286,-0.0278,-0.0204,-0.019,-0.0184,-0.0135,-0.0149,-0.0146,-0.0144,-0.0142,-0.0081,-0.0081,0,0,0,0,0,0,-0.0417,-0.0403,-0.0353,-0.0348,-0.0374,-0.0324,-0.0317,-0.031,-0.0252,-0.0243,-0.0279,-0.0276,-0.0196,-0.0188,-0.018,-0.0165,-0.0145,-0.0142,-0.014,-0.008,-0.0081,-0.0081,0,0,0,0,0,0,-0.0419,-0.0413,-0.0356,-0.0374,-0.0365,-0.0324,-0.0316,-0.0308,-0.0295,-0.0244,-0.0235,-0.0273,-0.0195,-0.0185,-0.0158,-0.0161,-0.014,-0.0137,-0.008,-0.008,-0.0081,-0.0131,0,0,0,0,0,0,-0.0421,-0.0414,-0.0416,-0.0375,-0.0365,-0.034,-0.0316,-0.0307,-0.0291,-0.0288,-0.0236,-0.0227,-0.0194,-0.0163,-0.0155,-0.0156,-0.0135,-0.0079,-0.008,-0.0081,-0.0129,-0.0133,-0.0137,0,0,0,0,0,-0.0423,-0.0427,-0.0416,-0.041,-0.0367,-0.0341,-0.0333,-0.0302,-0.0291,-0.0289,-0.0257,-0.0229,-0.0162,-0.0161,-0.015,-0.0151,-0.0079,-0.008,-0.0081,-0.0127,-0.0132,-0.0137,0,0,0,0,0,0,-0.0455,-0.0422,-0.0409,-0.0402,-0.0376,-0.0333,-0.0328,-0.0307,-0.028,-0.0278,-0.0231,-0.022,-0.0198,-0.017,-0.017,-0.0137,-0.0117,-0.0116,-0.0156,-0.0161,-0.0165,-0.017,-0.0132,0,0,0,0,0,-0.0464,-0.0459,-0.0422,-0.0418,-0.0408,-0.037,-0.0356,-0.0336,-0.0304,-0.0292,-0.0256,-0.0222,-0.0194,-0.0175,-0.0146,-0.0125,-0.0099,-0.012,-0.0124,-0.0128,-0.0126,-0.0094,-0.0094,-0.0085,-0.0085,-0.0085,0,0,-0.0475,-0.0456,-0.0453,-0.0425,-0.0403,-0.0394,-0.0361,-0.0345,-0.0336,-0.0286,-0.0266,-0.0235,-0.0193,-0.0171,-0.0159,-0.0147,-0.012,-0.0129,-0.0133,-0.0128,-0.0095,-0.0096,-0.0096,-0.0085,-0.0085,-0.0085,0,0,-0.0498,-0.0479,-0.0484,-0.0466,-0.0439,-0.0415,-0.0414,-0.0375,-0.0356,-0.0334,-0.0299,-0.0271,-0.0226,-0.0195,-0.0174,-0.0183,-0.0145,-0.0177,-0.0197,-0.0166,-0.0166,-0.0166,-0.0146,-0.0144,-0.0177,-0.0177,-0.0177,0,-0.0515,-0.0513,-0.0481,-0.0481,-0.0472,-0.0429,-0.0433,-0.0407,-0.0364,-0.035,-0.0337,-0.0271,-0.0236,-0.0204,-0.0208,-0.0191,-0.0172,-0.0181,-0.0171,-0.0171,-0.017,-0.0149,-0.0145,-0.0179,-0.0179,-0.0179,-0.0178,0,-0.0539,-0.0539,-0.054,-0.0527,-0.0512,-0.0508,-0.047,-0.0454,-0.0429,-0.0398,-0.0364,-0.0314,-0.0275,-0.0261,-0.0235,-0.0212,-0.02,-0.0183,-0.0159,-0.0174,-0.0151,-0.0147,-0.0183,-0.0182,-0.0181,-0.0181,0,0,-0.0579,-0.0563,-0.0565,-0.0571,-0.0538,-0.0532,-0.0515,-0.0487,-0.048,-0.0432,-0.0416,-0.0361,-0.0329,-0.0304,-0.0265,-0.0234,-0.0214,-0.0209,-0.0207,-0.0191,-0.0153,-0.011,-0.0101,-0.0195,-0.0194,-0.0194,-0.0144,0,-0.0612,-0.0632,-0.0606,-0.0624,-0.0632,-0.0589,-0.0578,-0.0545,-0.0509,-0.0481,-0.0419,-0.039,-0.0347,-0.0331,-0.0292,-0.023,-0.0203,-0.0229,-0.014,-0.0138,-0.0097,-0.0094,-0.0077,-0.0027,-0.014,-0.0139,-0.0138,0,-0.0649,-0.0658,-0.0683,-0.068,-0.0679,-0.0676,-0.0656,-0.0639,-0.0581,-0.0552,-0.0502,-0.0449,-0.0388,-0.0358,-0.0255,-0.0273,-0.0221,-0.0174,-0.0171,-0.0107,-0.0085,-0.0028,-0.0015,-0.0131,-0.0131,-0.0132,-0.0132,0,-0.0706,-0.0714,-0.074,-0.0738,-0.0722,-0.0723,-0.0711,-0.0664,-0.0654,-0.0597,-0.0582,-0.0495,-0.0455,-0.037,-0.0258,-0.0261,-0.0148,-0.0139,-0.0053,-0.005,-0.0004,0.0003,-0.0079,-0.0079,-0.0079,-0.0079,-0.0079,0,-0.0758,-0.0779,-0.0772,-0.0786,-0.0817,-0.078,-0.0795,-0.0767,-0.0726,-0.0718,-0.0626,-0.06,-0.0456,-0.0367,-0.0273,-0.014,-0.0157,-0.0052,-0.0028,-0.0022,-0.0018,-0.0081,-0.0081,-0.0077,-0.0078,-0.0078,-0.0078,0,-0.0817,-0.0812,-0.0845,-0.0843,-0.0846,-0.0869,-0.0861,-0.0868,-0.0817,-0.0804,-0.0789,-0.0675,-0.0552,-0.0404,-0.0258,-0.0159,-0.004,0.0004,0.0001,0.0024,0.0035,0.003,0.0102,0.0104,0.0106,0.0107,0.0108,0,-0.0849,-0.0871,-0.0897,-0.0927,-0.093,-0.0953,-0.0967,-0.0925,-0.0927,-0.0854,-0.0855,-0.0727,-0.0634,-0.0386,-0.0173,0.0018,-0.0008,0.0126,0.0132,0.0041,0.0056,0.0049,0.0042,0.0164,0.0165,0.0167,0.0168,0,-0.0907,-0.0914,-0.0945,-0.1007,-0.1039,-0.1072,-0.1085,-0.1096,-0.1041,-0.101,-0.0954,-0.0871,-0.0599,-0.0348,-0.0068,0.004,0.0105,0.0159,0.0074,0.0118,0.0105,0.0117,0.0108,0.0179,0.0178,0.0177,0.0177,0.0176,-0.0948,-0.0991,-0.1032,-0.1091,-0.1135,-0.118,-0.1205,-0.1182,-0.1173,-0.1075,-0.1007,-0.0821,-0.0578,-0.0144,0.0045,0.0236,0.0203,0.0253,0.0246,0.0239,0.0241,0.0232,0.0329,0.0329,0.0329,0.0328,0.0328,0,-0.0991,-0.1048,-0.1112,-0.1183,-0.1229,-0.1241,-0.1275,-0.1244,-0.1211,-0.1078,-0.0964,-0.0655,-0.0354,-0.0112,0.0213,0.0378,0.0365,0.0394,0.0349,0.0337,0.0326,0.033,0.0443,0.0444,0.0444,0.0445,0,0,-0.1017,-0.1089,-0.1124,-0.123,-0.1288,-0.1319,-0.1336,-0.1267,-0.116,-0.1005,-0.0838,-0.0603,-0.0329,-0.0071,0.0143,0.0301,0.0269,0.0317,0.021,0.0119,0.0107,0.0234,0.0225,0,0,0,0,0]}],[{"header":{"parameterUnit":"m.s-1","parameterCategory":2,"la1":30.2991,"la2":30.254,"lo1":-89.0895,"lo2":-89.0444,"dy":0.0017,"dx":0.0017,"nx":28,"ny":28,"refTime":"2024-02-16T09:00:00:Z","depth":"4","parameterNumber":2,"parameterNumberName":"U-component_of_CURRENTS"},"data":[0,0,0,0,0,0,0,0,0,0,0,0,0,0,0,0,0,0,0,0,0,0,0,0,0,0,0,0,0,0,0,0,0,0,0,0,0,0,0,0,0,0,0,0,0,0,0,0,0,0,0,0,0,0,0,0,0,0,-0.1568,-0.1568,0,-0.1631,-0.1632,-0.1633,-0.1675,-0.1675,-0.1675,-0.1676,-0.1745,-0.1747,-0.1748,0,0,0,0,0,0,0,0,0,0,0,0,0,-0.1488,-0.1489,-0.1567,-0.1568,-0.1569,-0.1631,-0.1632,-0.1633,-0.1675,-0.1675,-0.1676,-0.1676,-0.1745,-0.1746,-0.1748,0,0,0,0,0,0,0,0,0,0,0,0,0,-0.1533,-0.1489,-0.1567,-0.1599,-0.1602,-0.1631,-0.1632,-0.1633,-0.1674,-0.1675,-0.1676,-0.1676,-0.1744,-0.1746,-0.1748,-0.175,0,0,-0.1755,-0.1756,0,0,0,0,0,0,0,0,-0.153,-0.1536,-0.1593,-0.1597,-0.1601,-0.1647,-0.163,-0.1673,-0.1674,-0.1646,-0.1676,-0.1677,-0.1713,-0.1718,-0.1727,-0.1753,-0.1756,-0.1755,-0.1757,-0.1758,-0.1758,0,0,0,0,0,0,0,-0.1527,-0.1533,-0.1591,-0.1594,-0.1599,-0.1612,-0.1619,-0.1638,-0.1674,-0.1648,-0.1652,-0.1661,-0.1715,-0.1724,-0.1729,-0.1757,-0.1755,-0.1757,-0.1759,-0.1759,-0.1866,-0.1868,0,0,0,0,0,0,-0.1521,-0.153,-0.1589,-0.1593,-0.1568,-0.1613,-0.162,-0.163,-0.1674,-0.1682,-0.166,-0.1663,-0.172,-0.1726,-0.1731,-0.1802,-0.1758,-0.176,-0.1761,-0.1865,-0.1866,-0.1868,0,0,0,0,0,0,-0.1519,-0.1526,-0.1587,-0.1564,-0.1573,-0.1614,-0.1624,-0.1631,-0.1669,-0.1683,-0.1691,-0.1694,-0.1721,-0.1728,-0.1776,-0.1803,-0.1761,-0.1763,-0.1863,-0.1865,-0.1867,-0.1901,0,0,0,0,0,0,-0.1517,-0.1525,-0.1543,-0.1564,-0.1574,-0.1624,-0.1624,-0.1632,-0.1672,-0.1677,-0.1714,-0.172,-0.1722,-0.1772,-0.1778,-0.1805,-0.1764,-0.1861,-0.1864,-0.1867,-0.1898,-0.1904,-0.1909,0,0,0,0,0,-0.1513,-0.1532,-0.1544,-0.1552,-0.1594,-0.1625,-0.1633,-0.1662,-0.1674,-0.1696,-0.1723,-0.172,-0.1794,-0.1776,-0.1782,-0.181,-0.186,-0.1863,-0.1866,-0.1895,-0.1903,-0.1909,0,0,0,0,0,0,-0.151,-0.1539,-0.1552,-0.158,-0.1611,-0.1634,-0.1661,-0.1678,-0.1717,-0.1729,-0.1739,-0.1747,-0.1799,-0.1802,-0.1781,-0.185,-0.1827,-0.1831,-0.1847,-0.1854,-0.1859,-0.1857,-0.1766,0,0,0,0,0,-0.1516,-0.1539,-0.1567,-0.1594,-0.1611,-0.1641,-0.1663,-0.1684,-0.1714,-0.1733,-0.1759,-0.1787,-0.1812,-0.1833,-0.1856,-0.1893,-0.188,-0.1916,-0.1922,-0.1927,-0.193,-0.1932,-0.1937,-0.1879,-0.1879,-0.1879,0,0,-0.1524,-0.1542,-0.1558,-0.1596,-0.1622,-0.1654,-0.1657,-0.1699,-0.1732,-0.1733,-0.1795,-0.1812,-0.1828,-0.1871,-0.1894,-0.188,-0.1937,-0.1931,-0.1935,-0.1936,-0.1936,-0.1941,-0.1946,-0.1882,-0.1881,-0.1881,0,0,-0.154,-0.1567,-0.1591,-0.1619,-0.1664,-0.1682,-0.17,-0.1742,-0.1771,-0.1822,-0.1832,-0.1867,-0.1912,-0.1925,-0.1935,-0.1988,-0.1968,-0.2001,-0.2028,-0.2029,-0.2033,-0.2037,-0.2023,-0.2026,-0.2003,-0.2003,-0.2003,0,-0.1551,-0.158,-0.1605,-0.1636,-0.1663,-0.1698,-0.1732,-0.1765,-0.1819,-0.1841,-0.1851,-0.1916,-0.1934,-0.197,-0.1993,-0.2,-0.1992,-0.1997,-0.2035,-0.2038,-0.2041,-0.2026,-0.2028,-0.2005,-0.2005,-0.2004,-0.2004,0,-0.1576,-0.1614,-0.1632,-0.168,-0.1714,-0.1751,-0.1794,-0.1837,-0.1873,-0.1897,-0.1954,-0.1976,-0.2009,-0.2025,-0.2028,-0.2064,-0.2048,-0.204,-0.2011,-0.2048,-0.2031,-0.2032,-0.2008,-0.2007,-0.2006,-0.2006,0,0,-0.1559,-0.1635,-0.1644,-0.1676,-0.1741,-0.1768,-0.1828,-0.1879,-0.1916,-0.1967,-0.2006,-0.2054,-0.2064,-0.2077,-0.2085,-0.2093,-0.211,-0.2082,-0.2081,-0.2059,-0.2104,-0.1994,-0.1984,-0.2107,-0.2108,-0.2108,-0.2081,0,-0.1573,-0.1631,-0.1669,-0.1733,-0.1765,-0.1818,-0.1867,-0.192,-0.1965,-0.2014,-0.2038,-0.2081,-0.2083,-0.2103,-0.2114,-0.2116,-0.2116,-0.2118,-0.2081,-0.208,-0.1968,-0.1983,-0.211,-0.2082,-0.2082,-0.2082,-0.2082,0,-0.1574,-0.1616,-0.1679,-0.1756,-0.1776,-0.1824,-0.1899,-0.1949,-0.2016,-0.205,-0.209,-0.2111,-0.2145,-0.2136,-0.2146,-0.2148,-0.2133,-0.2124,-0.2123,-0.2008,-0.1972,-0.204,-0.2084,-0.2084,-0.2084,-0.2084,-0.2084,0,-0.153,-0.1617,-0.1667,-0.1696,-0.1791,-0.1834,-0.1885,-0.196,-0.2,-0.2074,-0.2104,-0.2141,-0.2165,-0.2159,-0.2157,-0.2154,-0.2152,-0.2137,-0.2018,-0.201,-0.2102,-0.2099,-0.2133,-0.2133,-0.2133,-0.2133,-0.2133,0,-0.1508,-0.1551,-0.1657,-0.1685,-0.1747,-0.182,-0.1885,-0.1943,-0.2016,-0.2054,-0.2118,-0.214,-0.2175,-0.218,-0.2163,-0.2091,-0.2153,-0.2019,-0.1995,-0.2118,-0.2116,-0.2102,-0.2099,-0.2132,-0.2132,-0.2132,-0.2132,0,-0.1444,-0.1519,-0.158,-0.169,-0.1729,-0.1771,-0.1879,-0.1915,-0.2001,-0.205,-0.2073,-0.2143,-0.2146,-0.2161,-0.2152,-0.2084,-0.2038,-0.1998,-0.2127,-0.2112,-0.189,-0.189,-0.1843,-0.1839,-0.1835,-0.1832,-0.183,0,-0.1413,-0.1442,-0.1566,-0.1606,-0.1662,-0.174,-0.1788,-0.1892,-0.1926,-0.2032,-0.2038,-0.2086,-0.2115,-0.2001,-0.2038,-0.1981,-0.1962,-0.1918,-0.1901,-0.1879,-0.1861,-0.1866,-0.187,-0.1824,-0.1823,-0.1822,-0.1821,0,-0.1347,-0.1404,-0.1457,-0.1535,-0.1601,-0.1658,-0.1735,-0.1746,-0.1854,-0.1955,-0.1944,-0.1932,-0.1934,-0.1915,-0.1889,-0.1852,-0.1934,-0.1881,-0.1887,-0.1871,-0.1856,-0.1842,-0.185,-0.1809,-0.1811,-0.1812,-0.1813,0,-0.1295,-0.1312,-0.1387,-0.1438,-0.1519,-0.1541,-0.1599,-0.1634,-0.1677,-0.1798,-0.1792,-0.1845,-0.1918,-0.1848,-0.1827,-0.178,-0.1746,-0.1677,-0.1694,-0.1708,-0.1677,-0.1638,-0.1498,0,0,0,0,0,-0.1231,-0.1236,-0.1281,-0.133,-0.1401,-0.1441,-0.1545,-0.1604,-0.1715,-0.1664,-0.1719,-0.1714,-0.1679,-0.171,-0.1629,-0.1762,-0.1753,-0.1661,-0.1684,-0.1742,-0.1756,-0.1732,0,0,0,0,0,0,-0.119,-0.1229,-0.1239,-0.1219,-0.1228,-0.1287,-0.1345,-0.1427,-0.1408,-0.1527,-0.1516,-0.1605,-0.1596,-0.1691,-0.159,-0.1598,-0.1576,-0.1704,-0.1699,-0.1734,-0.1747,-0.1758,-0.1739,0,0,0,0,0]},{"header":{"parameterUnit":"m.s-1","parameterCategory":2,"la1":30.2991,"la2":30.254,"lo1":-89.0895,"lo2":-89.0444,"dy":0.0017,"dx":0.0017,"nx":28,"ny":28,"refTime":"2024-02-16T09:00:00:Z","depth":"4","parameterNumber":3,"parameterNumberName":"V-component_of_CURRENTS"},"data":[0,0,0,0,0,0,0,0,0,0,0,0,0,0,0,0,0,0,0,0,0,0,0,0,0,0,0,0,0,0,0,0,0,0,0,0,0,0,0,0,0,0,0,0,0,0,0,0,0,0,0,0,0,0,0,0,0,0,-0.0091,-0.009,0,-0.0046,-0.0045,-0.0045,-0.001,-0.001,-0.001,-0.0009,0.006,0.0062,0.0063,0,0,0,0,0,0,0,0,0,0,0,0,0,-0.0115,-0.0115,-0.0091,-0.009,-0.009,-0.0046,-0.0045,-0.0045,-0.001,-0.001,-0.001,-0.0009,0.006,0.0062,0.0063,0,0,0,0,0,0,0,0,0,0,0,0,0,-0.0091,-0.0115,-0.0091,-0.0067,-0.0065,-0.0046,-0.0045,-0.0045,-0.001,-0.001,-0.001,-0.0009,0.0059,0.0061,0.0064,0.007,0,0,0.0071,0.0072,0,0,0,0,0,0,0,0,-0.0092,-0.009,-0.0071,-0.0069,-0.0066,-0.0034,-0.0028,-0.0005,-0.0011,-0.0031,-0.0009,-0.0009,0.0031,0.0035,0.0043,0.0073,0.0076,0.0071,0.0073,0.0074,0.0074,0,0,0,0,0,0,0,-0.0094,-0.0091,-0.0072,-0.0071,-0.0068,-0.0049,-0.0045,-0.0024,-0.0002,-0.0029,-0.0026,-0.0022,0.0032,0.0041,0.0045,0.0077,0.0071,0.0073,0.0075,0.0076,0.0104,0.0104,0,0,0,0,0,0,-0.0102,-0.0093,-0.0074,-0.0071,-0.0079,-0.0049,-0.0045,-0.0044,-0.0003,0.0003,-0.0023,-0.0021,0.0036,0.0042,0.0048,0.0046,0.0074,0.0076,0.0077,0.0105,0.0104,0.0104,0,0,0,0,0,0,-0.0103,-0.0101,-0.0076,-0.0081,-0.0077,-0.0049,-0.0049,-0.0044,-0.0037,0.0001,0.0009,-0.0021,0.0037,0.0044,0.0059,0.0049,0.0077,0.0079,0.0106,0.0105,0.0104,0.005,0,0,0,0,0,0,-0.0104,-0.0102,-0.0108,-0.0082,-0.0077,-0.0072,-0.0049,-0.0043,-0.0035,-0.0032,0.0005,0.0012,0.0038,0.0055,0.0062,0.0053,0.0081,0.0107,0.0105,0.0104,0.0052,0.0047,0.0043,0,0,0,0,0,-0.0105,-0.0115,-0.0108,-0.0106,-0.0085,-0.0072,-0.0068,-0.0046,-0.0035,-0.0037,-0.0014,0.0011,0.0052,0.0057,0.0064,0.0056,0.0107,0.0106,0.0104,0.0055,0.0048,0.0043,0,0,0,0,0,0,-0.0129,-0.0112,-0.0104,-0.0108,-0.0095,-0.0067,-0.0067,-0.0052,-0.0034,-0.0033,0.0005,0.0013,0.0022,0.0044,0.0049,0.006,0.0083,0.0083,0.0042,0.0037,0.0032,0.0029,0.0083,0,0,0,0,0,-0.0138,-0.0142,-0.012,-0.0125,-0.0121,-0.0095,-0.0089,-0.0075,-0.0054,-0.0046,-0.0021,0.0003,0.0021,0.0033,0.0052,0.006,0.0092,0.0059,0.0054,0.0049,0.0052,0.0085,0.0084,0.0099,0.0099,0.0099,0,0,-0.0149,-0.014,-0.0142,-0.0131,-0.0118,-0.0119,-0.009,-0.0085,-0.0085,-0.0042,-0.0036,-0.0013,0.0018,0.0025,0.0031,0.0044,0.0061,0.0047,0.0043,0.0048,0.0084,0.0083,0.0081,0.0098,0.0098,0.0098,0,0,-0.0172,-0.0165,-0.0175,-0.0168,-0.0155,-0.014,-0.0142,-0.0119,-0.0108,-0.0101,-0.0072,-0.0055,-0.0028,-0.0006,0.0008,-0.0013,0.0032,-0.0009,-0.0032,-0.0,-0.0001,-0.0001,0.0035,0.0038,-0.001,-0.001,-0.001,0,-0.0186,-0.0194,-0.0176,-0.0184,-0.0182,-0.0154,-0.0163,-0.0151,-0.0126,-0.0118,-0.0109,-0.0066,-0.0043,-0.0026,-0.0035,-0.0023,0.0005,-0.0013,-0.0006,-0.0005,-0.0005,0.0032,0.0037,-0.0012,-0.0012,-0.0012,-0.0012,0,-0.0213,-0.0221,-0.0228,-0.0228,-0.0225,-0.0229,-0.021,-0.0205,-0.0191,-0.0171,-0.0153,-0.012,-0.0092,-0.0086,-0.0067,-0.0052,-0.003,-0.0017,0.001,-0.0009,0.0031,0.0036,-0.0016,-0.0015,-0.0015,-0.0014,0,0,-0.0237,-0.0246,-0.0249,-0.0258,-0.0249,-0.0249,-0.0252,-0.0241,-0.0238,-0.0214,-0.0202,-0.0177,-0.015,-0.0132,-0.0103,-0.0076,-0.0051,-0.0048,-0.0045,-0.0012,0.0026,0.0041,0.0049,-0.0035,-0.0034,-0.0034,0.0051,0,-0.0263,-0.0291,-0.0285,-0.031,-0.0321,-0.0302,-0.0305,-0.0291,-0.0271,-0.0253,-0.0213,-0.0194,-0.017,-0.0156,-0.0127,-0.0065,-0.0038,-0.0075,0.0039,0.0043,0.0059,0.0055,-0.0032,0.0056,0.0057,0.0058,0.0059,0,-0.0288,-0.0303,-0.0335,-0.0348,-0.0351,-0.0363,-0.0358,-0.0358,-0.0324,-0.0306,-0.0274,-0.0235,-0.0191,-0.0172,-0.0076,-0.0099,-0.0045,0.0002,0.0007,0.0045,0.0068,0.008,0.007,0.0069,0.0068,0.0068,0.0067,0,-0.031,-0.0337,-0.0365,-0.037,-0.0381,-0.0392,-0.0397,-0.0375,-0.0374,-0.0337,-0.0324,-0.0261,-0.0227,-0.0153,-0.0056,-0.0064,0.0057,0.0059,0.0124,0.0126,0.0112,0.0112,0.0121,0.0121,0.012,0.012,0.012,0,-0.0333,-0.0356,-0.0382,-0.0396,-0.043,-0.0424,-0.0446,-0.0436,-0.0418,-0.0412,-0.0355,-0.0325,-0.0221,-0.0137,-0.0056,0.0059,0.006,0.0124,0.0149,0.0087,0.0082,0.0117,0.0115,0.0123,0.0123,0.0122,0.0122,0,-0.0348,-0.0365,-0.0402,-0.0429,-0.0442,-0.0467,-0.0491,-0.05,-0.0476,-0.0464,-0.0454,-0.0366,-0.0257,-0.0142,-0.0007,0.0059,0.0166,0.0204,0.0138,0.0157,0.0212,0.0207,0.0281,0.0282,0.0283,0.0284,0.0285,0,-0.0355,-0.0375,-0.0429,-0.0462,-0.048,-0.0516,-0.054,-0.0534,-0.0536,-0.0484,-0.0474,-0.0371,-0.0301,-0.0094,0.0022,0.0189,0.0205,0.0262,0.0225,0.0212,0.0229,0.0222,0.0215,0.0286,0.0287,0.0287,0.0287,0,-0.0366,-0.039,-0.0423,-0.049,-0.0533,-0.0574,-0.0602,-0.0605,-0.0584,-0.0564,-0.0483,-0.0372,-0.0242,-0.0091,0.0045,0.016,0.0227,0.0273,0.0271,0.0237,0.022,0.0234,0.0226,0.0291,0.029,0.029,0.029,0,-0.0373,-0.0405,-0.0455,-0.051,-0.0571,-0.0611,-0.0625,-0.0616,-0.061,-0.0545,-0.0515,-0.0375,-0.029,-0.0104,0.0022,0.014,0.0157,0.0185,0.0188,0.0185,0.013,0.0092,0.0149,0,0,0,0,0,-0.0374,-0.0413,-0.047,-0.0532,-0.0593,-0.0624,-0.0655,-0.0656,-0.0632,-0.0582,-0.0547,-0.0425,-0.0226,-0.0134,-0.0016,0.0032,0.0173,0.0174,0.0204,0.0311,0.0306,0.0258,0,0,0,0,0,0,-0.0378,-0.0433,-0.0466,-0.0536,-0.0579,-0.0639,-0.066,-0.0648,-0.061,-0.057,-0.0466,-0.0399,-0.0208,-0.0297,-0.0014,0.0024,0.0059,0.027,0.0273,0.0313,0.0309,0.0306,0.0255,0,0,0,0,0]}]]